Vorticity
11 2 5 14 10 12 10 8 5 6 14 32 23 -22 6 16 4 36 7 7 -7 25 -32 12 12 14 10 8 7 8 6 5 6 6 7 7 6 7 7 7 6 5 6 6
24 -0 14 5 10 16 4 18 3 17 0 21 16 12 8 -3 5 13 25 1 31 25 -3 -1 6 24 8 9 8 7 7 7 6 6 6 6 7 6 5 6 6 6 6 6
2 5 15 11 5 7 12 9 6 5 7 16 12 18 16 13 5 12 4 14 15 5 23 -8 10 -10 16 9 9 8 9 9 8 7 6 7 6 6 7 6 6 6 6 5
5 7 6 7 12 13 23 8 9 7 5 11 -1 -5 47 25 13 3 4 13 12 12 7 15 4 6 -19 29 2 9 6 8 10 8 8 8 8 7 6 6 6 5 3 6
-4 6 18 9 15 5 1 20 6 13 7 11 45 14 5 9 7 13 22 5 16 4 11 4 39 24 -53 -6 34 8 9 7 10 9 10 8 7 7 6 7 5 3 6 6
5 -3 19 6 24 3 5 18 32 11 15 18 1 9 -0 20 8 8 17 17 2 26 9 1 0 43 -3 9 27 -1 10 9 9 10 9 8 8 6 7 8 6 6 8 4
23 7 -5 -1 18 19 7 20 10 15 13 18 -2 25 2 -0 12 19 15 8 4 6 19 4 5 21 45 29 24 7 -1 10 9 10 10 8 7 8 6 7 8 9 8 6
6 12 2 -8 12 18 9 7 22 13 4 -29 50 8 1 6 -1 -10 10 11 10 16 16 17 11 18 12 27 4 14 -13 2 8 10 7 9 8 8 11 5 6 9 7 4
9 2 0 5 28 10 3 -1 21 11 20 27 11 5 10 21 17 19 14 21 14 10 6 9 15 1 16 15 30 20 2 -3 18 10 8 10 10 11 3 6 8 5 6 2
-2 16 7 0 20 -1 3 16 11 14 9 13 -7 26 45 16 3 -8 3 -1 4 6 25 18 6 5 11 5 30 3 -3 16 10 0 11 12 12 7 1 1 5 11 9 9
12 14 -35 23 -8 1 17 13 9 13 7 1 7 7 -32 19 -2 -1 4 12 7 -1 -8 -3 17 22 11 4 18 18 8 -10 6 8 -13 11 9 7 -5 -20 -30 -3 -1 1
13 13 -0 30 21 19 7 7 13 11 -4 -23 4 -8 29 -4 -15 -0 9 -5 1 10 13 -1 -5 14 13 20 8 6 12 44 -0 10 4 -1 14 -3 16 -13 -11 16 12 4
-4 -4 27 17 18 4 -9 -4 -1 6 23 15 -7 -1 -8 -13 -11 11 2 5 10 8 4 20 4 -0 11 10 17 17 11 2 7 23 3 2 -0 -11 1 15 -5 6 -2 2
14 9 1 -30 -26 -12 -1 4 14 17 8 -3 -16 -14 1 12 11 14 24 19 14 -3 9 13 17 3 6 7 9 19 15 16 9 5 34 14 8 2 -1 34 4 -6 40 12
21 -3 14 11 11 9 17 17 13 9 14 7 -30 9 4 18 9 19 21 19 15 26 18 13 20 18 13 9 9 14 18 18 19 12 12 16 14 11 8 -16 -15 51 16 17
14 -1 -1 8 10 23 10 6 14 35 28 24 45 -15 31 12 -3 -2 12 16 17 20 18 16 17 24 21 13 7 4 13 17 23 21 20 16 18 19 22 33 14 8 7 14
-1 6 -2 1 15 -20 50 50 4 9 10 -1 0 3 3 14 6 16 26 14 9 8 15 16 16 15 25 14 11 3 6 10 18 23 29 29 26 19 18 14 14 -7 34 4
18 20 3 6 23 30 12 3 4 -10 9 19 12 8 15 6 8 26 8 1 -1 -5 -0 4 -4 3 11 21 19 18 13 9 15 16 3 25 25 17 16 26 15 7 4 8
9 21 2 -4 12 -23 44 27 41 0 2 7 58 40 30 29 37 2 7 2 1 -8 -7 -16 16 13 5 2 9 21 18 16 12 17 16 10 14 21 22 24 21 8 20 20
-7 11 7 7 7 1 -24 2 6 -1 38 3 -6 -8 -8 8 8 -12 5 10 3 2 3 7 -13 21 22 -1 18 5 16 17 15 13 4 6 19 9 -1 5 6 19 8 -1
17 20 10 10 -7 22 11 4 15 60 -18 -7 -14 -8 -7 10 3 1 2 -3 0 -5 -12 -4 -5 2 6 13 1 8 13 12 17 15 13 13 11 11 12 14 18 8 2 8
-5 9 7 39 19 28 32 5 -11 -21 1 -2 -4 11 15 16 11 5 7 -3 7 1 4 -0 4 -1 24 10 28 10 6 9 12 14 13 15 10 13 15 8 -3 5 13 4
-7 -12 14 -2 -15 -50 -40 -15 -12 -0 2 9 9 -6 -6 -15 -6 1 7 -2 5 2 9 -3 19 34 10 18 9 6 22 15 4 13 13 12 14 8 11 10 6 11 4 9
-3 -2 1 -3 30 20 13 10 -0 1 -4 -16 -3 14 23 10 7 10 11 11 13 21 20 15 -1 1 5 17 10 12 8 11 15 11 12 11 10 10 11 3 15 8 23 15
-9 -7 15 15 20 22 30 28 25 35 34 38 18 28 9 14 -1 14 6 10 5 0 -12 6 22 22 26 7 8 25 2 16 6 10 11 11 9 9 10 14 13 20 9 11
26 20 22 11 10 12 17 21 10 8 18 10 19 22 24 17 17 21 17 18 4 22 32 38 17 7 17 4 10 4 34 10 10 26 3 10 14 11 11 8 19 14 9 9
Height
3088 3087 3082 3080 3078 3076 3074 3071 3070 3068 3068 3068 3070 3070 3074 3070 3070 3070 3074 3081 3084 3087 3083 3092 3096 3098 3101 3105 3111 3116 3119 3123 3126 3130 3133 3136 3137 3140 3142 3144 3146 3147 3149 3150
3090 3087 3084 3081 3080 3077 3075 3072 3070 3069 3069 3068 3069 3069 3072 3072 3067 3067 3076 3077 3080 3084 3085 3087 3092 3097 3100 3104 3108 3112 3117 3120 3123 3126 3129 3131 3133 3135 3138 3140 3142 3143 3145 3147
3092 3090 3085 3084 3082 3077 3075 3074 3072 3071 3067 3066 3067 3066 3065 3069 3072 3073 3074 3076 3079 3080 3080 3085 3090 3093 3097 3101 3104 3109 3113 3116 3119 3121 3123 3126 3130 3131 3134 3136 3138 3139 3141 3142
3092 3090 3087 3085 3082 3079 3076 3075 3072 3070 3068 3068 3067 3065 3060 3065 3069 3072 3072 3072 3074 3074 3080 3083 3091 3092 3094 3096 3101 3102 3105 3109 3112 3115 3118 3121 3125 3128 3130 3132 3134 3135 3136 3138
3096 3090 3087 3085 3082 3080 3078 3074 3072 3071 3069 3068 3065 3067 3063 3064 3066 3067 3069 3069 3073 3077 3078 3080 3081 3087 3089 3091 3093 3096 3099 3103 3107 3109 3113 3116 3119 3123 3125 3127 3129 3130 3132 3134
3095 3093 3090 3086 3083 3080 3077 3072 3070 3071 3070 3071 3069 3070 3063 3065 3065 3066 3066 3067 3069 3071 3073 3075 3076 3080 3082 3084 3087 3090 3094 3097 3102 3105 3108 3111 3114 3117 3120 3122 3124 3127 3128 3129
3096 3093 3091 3088 3083 3081 3079 3074 3072 3075 3072 3072 3070 3070 3065 3065 3065 3065 3066 3067 3067 3069 3070 3070 3072 3075 3077 3077 3079 3083 3087 3092 3096 3099 3102 3104 3107 3110 3114 3116 3118 3121 3123 3124
3098 3094 3091 3089 3087 3084 3080 3080 3081 3082 3078 3074 3069 3069 3067 3066 3065 3065 3065 3065 3066 3065 3067 3069 3070 3071 3070 3073 3075 3079 3083 3086 3089 3092 3095 3098 3100 3103 3107 3110 3112 3114 3116 3118
3099 3095 3092 3090 3087 3087 3084 3082 3083 3081 3076 3073 3067 3066 3066 3063 3064 3064 3063 3063 3063 3063 3062 3063 3065 3065 3066 3067 3067 3070 3074 3078 3084 3086 3088 3090 3093 3097 3102 3104 3106 3107 3109 3110
3100 3095 3092 3090 3088 3087 3086 3086 3084 3083 3080 3077 3069 3066 3064 3064 3064 3063 3063 3061 3061 3060 3059 3058 3058 3060 3061 3062 3064 3065 3066 3072 3075 3078 3081 3083 3087 3089 3092 3095 3098 3100 3101 3102
3098 3096 3092 3089 3087 3086 3085 3084 3085 3084 3082 3079 3075 3067 3064 3063 3063 3062 3062 3060 3058 3057 3057 3057 3056 3055 3055 3055 3057 3060 3064 3063 3067 3071 3073 3076 3079 3083 3084 3086 3087 3089 3092 3093
3097 3094 3089 3087 3085 3084 3084 3083 3083 3083 3081 3077 3076 3064 3059 3061 3061 3061 3059 3057 3055 3052 3051 3051 3052 3052 3051 3051 3051 3051 3053 3055 3059 3063 3068 3070 3072 3074 3075 3077 3078 3078 3080 3081
3095 3092 3088 3084 3084 3082 3081 3080 3079 3079 3079 3073 3075 3061 3059 3058 3057 3056 3052 3050 3050 3047 3044 3044 3045 3045 3045 3045 3045 3045 3045 3047 3049 3052 3056 3059 3062 3065 3066 3067 3068 3069 3070 3071
3093 3089 3088 3085 3082 3081 3077 3074 3075 3075 3072 3066 3059 3053 3054 3053 3051 3048 3045 3044 3042 3040 3039 3037 3036 3037 3037 3037 3037 3037 3037 3038 3038 3041 3043 3046 3051 3054 3056 3053 3055 3058 3058 3058
3088 3083 3084 3079 3079 3075 3070 3065 3063 3064 3060 3063 3047 3050 3047 3048 3046 3042 3039 3036 3034 3032 3032 3030 3028 3028 3029 3030 3029 3029 3028 3029 3029 3029 3031 3034 3037 3042 3045 3047 3046 3048 3049 3051
3081 3076 3076 3073 3071 3070 3061 3057 3055 3054 3051 3050 3047 3042 3044 3042 3039 3038 3035 3032 3029 3028 3027 3024 3022 3021 3022 3021 3021 3021 3021 3021 3022 3022 3020 3022 3025 3029 3033 3038 3041 3041 3041 3042
3076 3072 3071 3066 3067 3064 3055 3048 3050 3049 3048 3046 3043 3040 3039 3038 3035 3032 3030 3029 3027 3025 3024 3021 3019 3016 3015 3016 3015 3014 3014 3013 3012 3013 3014 3015 3018 3021 3025 3029 3032 3031 3034 3036
3068 3068 3069 3062 3064 3061 3049 3047 3046 3044 3044 3043 3039 3036 3034 3032 3030 3029 3028 3026 3024 3022 3020 3018 3016 3013 3011 3009 3009 3008 3007 3007 3007 3008 3008 3010 3012 3015 3017 3021 3020 3022 3025 3027
3063 3064 3063 3060 3054 3047 3044 3041 3040 3040 3040 3038 3029 3029 3029 3026 3025 3026 3025 3022 3020 3018 3016 3014 3012 3010 3006 3005 3003 3001 3000 3001 3001 3002 3004 3005 3006 3009 3011 3012 3013 3017 3019 3020
3060 3059 3059 3056 3052 3045 3041 3040 3039 3038 3035 3032 3026 3025 3024 3023 3022 3023 3021 3019 3015 3012 3010 3008 3005 3004 3001 2998 2997 2996 2993 2993 2994 2996 2997 2999 3001 3004 3006 3008 3009 3011 3013 3017
3052 3052 3050 3048 3045 3038 3039 3037 3034 3035 3035 3026 3023 3020 3017 3018 3018 3016 3014 3012 3009 3006 3003 3001 2998 2996 2994 2992 2990 2988 2987 2988 2988 2989 2991 2993 2996 2998 2999 3001 3003 3007 3011 3014
3048 3047 3042 3041 3040 3037 3034 3034 3034 3027 3019 3017 3013 3011 3007 3005 3004 3003 3003 3001 3000 2996 2994 2992 2990 2988 2985 2983 2981 2979 2979 2980 2981 2982 2984 2985 2988 2990 2993 2996 2999 3003 3004 3005
3040 3043 3039 3039 3033 3030 3026 3023 3018 3015 3012 3009 3006 3001 2998 2994 2992 2991 2988 2988 2987 2986 2984 2983 2980 2978 2976 2974 2973 2971 2971 2971 2972 2973 2974 2977 2980 2982 2984 2987 2990 2993 2994 2996
3031 3030 3026 3024 3019 3015 3016 3013 3008 3005 3001 2999 2996 2991 2988 2985 2983 2979 2976 2974 2972 2973 2972 2970 2970 2968 2967 2965 2962 2961 2961 2961 2962 2963 2966 2968 2971 2972 2975 2977 2980 2982 2986 2989
3021 3020 3014 3013 3011 3005 3004 3003 2998 2993 2991 2989 2985 2982 2977 2972 2968 2966 2963 2960 2958 2958 2959 2958 2955 2955 2956 2956 2953 2952 2952 2952 2953 2955 2956 2958 2960 2963 2965 2968 2971 2975 2979 2983
3009 3009 3007 3003 3003 2997 2995 2992 2988 2982 2980 2979 2972 2968 2966 2961 2955 2953 2948 2946 2944 2943 2943 2943 2944 2943 2943 2944 2942 2942 2942 2942 2943 2944 2947 2950 2952 2954 2957 2960 2965 2968 2972 2976